FW1542 Weather Reports


Display with metric or nautical units.
time (UTC)temp
F
wind
direction
speed
MPH
gust
MPH
rain 1hr
in
rain 24hr
in
rain mn
in
humidity
%
barometer
mb
20260903144554 84 201 2.0 11.0 0.00 0.00 0.00 80 1013.8
20260903144507 84 182 2.0 8.0 0.00 0.00 0.00 80 1015.3
20260903143101 84 196 4.0 11.0 0.00 0.00 0.00 82 1013.7
20260903143011 84 188 5.0 10.0 0.00 0.00 0.00 82 1015.3
20260903141557 82 170 3.0 8.0 0.00 0.00 0.00 84 1013.8
20260903141506 82 184 2.0 8.0 0.00 0.00 0.00 84 1015.3
20260903140057 81 171 3.0 8.0 0.00 0.00 0.00 85 1013.7
20260903140005 81 263 3.0 7.0 0.00 0.00 0.00 86 1015.3
20260903134554 81 126 1.0 7.0 0.00 0.00 0.00 87 1014.0
20260903134505 81 89 1.0 7.0 0.00 0.00 0.00 87 1015.5
20260903133051 80 167 2.0 7.0 0.00 0.00 0.00 87 1013.9
20260903133004 80 181 2.0 7.0 0.00 0.00 0.00 88 1015.4
20260903131557 80 175 2.0 8.0 0.00 0.00 0.00 88 1014.0
20260903131503 80 151 1.0 8.0 0.00 0.00 0.00 88 1015.3
20260903130116 79 215 3.0 7.0 0.00 0.00 0.00 88 1013.8
20260903130011 79 163 3.0 7.0 0.00 0.00 0.00 89 1015.2
20260903124550 79 178 1.0 9.0 0.00 0.00 0.00 89 1013.6
20260903124503 79 175 1.0 8.0 0.00 0.00 0.00 89 1015.2
20260903123106 79 167 0.0 5.0 0.00 0.00 0.00 89 1015.1
20260903123101 79 0 0.0 9.0 0.00 0.00 0.00 89 1013.6
20260903121600 79 186 1.0 6.0 0.00 0.00 0.00 89 1015.0
20260903121557 79 207 1.0 6.0 0.00 0.00 0.00 89 1013.4
20260903120106 79 178 0.0 5.0 0.00 0.00 0.00 89 1014.9
20260903120058 79 0 0.0 7.0 0.00 0.00 0.00 88 1013.2
20260903114603 79 219 1.0 9.0 0.00 0.00 0.00 88 1013.3
20260903114600 79 210 2.0 7.0 0.00 0.00 0.00 89 1014.9
20260903113059 80 0 1.0 7.0 0.00 0.00 0.00 88 1013.2
20260903113056 79 175 1.0 7.0 0.00 0.00 0.00 88 1014.8
20260903111613 80 202 2.0 9.0 0.00 0.00 0.00 88 1013.1
20260903111610 80 165 2.0 8.0 0.00 0.00 0.00 88 1014.7
20260903110112 80 193 0.0 7.0 0.00 0.00 0.00 88 1014.8
20260903104556 80 167 2.0 11.0 0.00 0.00 0.00 87 1013.4
20260903104552 80 167 2.0 6.0 0.00 0.00 0.00 88 1014.9
20260903103056 80 0 2.0 9.0 0.00 0.00 0.00 87 1013.2
20260903103048 80 130 0.0 6.0 0.00 0.00 0.00 88 1014.8
20260903101604 80 223 2.0 9.0 0.00 0.00 0.00 87 1013.1
20260903101545 80 210 2.0 8.0 0.00 0.00 0.00 88 1014.7
20260903100053 80 161 2.0 9.0 0.00 0.00 0.00 87 1013.1
20260903100045 80 176 3.0 7.0 0.00 0.00 0.00 88 1014.7
20260903094559 80 0 2.0 7.0 0.00 0.00 0.00 87 1013.2
20260903094552 80 128 2.0 7.0 0.00 0.00 0.00 88 1014.8
20260903093056 80 162 3.0 11.0 0.00 0.00 0.00 87 1013.2
20260903093043 80 146 3.0 9.0 0.00 0.00 0.00 87 1014.7
20260903091553 80 188 2.0 8.0 0.00 0.00 0.00 87 1013.1
20260903091541 80 183 3.0 8.0 0.00 0.00 0.00 87 1014.8
20260903090050 80 169 2.0 9.0 0.00 0.00 0.00 87 1012.9
20260903090042 80 181 1.0 8.0 0.00 0.00 0.00 88 1014.6
20260903084557 80 142 3.0 8.0 0.00 0.00 0.00 87 1013.1
20260903084541 80 142 3.0 6.0 0.00 0.00 0.00 88 1014.8
20260903083059 80 163 3.0 9.0 0.00 0.00 0.00 87 1013.2
20260903083041 80 155 3.0 9.0 0.00 0.00 0.00 88 1014.8
20260903081553 80 163 3.0 9.0 0.00 0.00 0.00 87 1013.1
20260903081545 80 162 2.0 9.0 0.00 0.00 0.00 87 1014.7
20260903080054 81 173 2.0 9.0 0.00 0.00 0.00 85 1012.9
20260903080038 81 169 3.0 9.0 0.00 0.00 0.00 86 1014.7
20260903074607 81 148 3.0 7.0 0.00 0.00 0.00 84 1013.1
20260903074540 81 149 3.0 8.0 0.00 0.00 0.00 84 1014.8
20260903073055 81 174 2.0 9.0 0.00 0.00 0.00 83 1013.1
20260903073038 81 163 3.0 9.0 0.00 0.00 0.00 83 1014.7
20260903071556 82 196 5.0 9.0 0.00 0.00 0.00 82 1013.2
20260903071534 82 196 4.0 9.0 0.00 0.00 0.00 82 1014.8
20260903070052 82 84 2.0 10.0 0.00 0.00 0.00 79 1013.3
20260903070036 82 84 2.0 9.0 0.00 0.00 0.00 80 1015.0
20260903064601 82 125 6.0 12.0 0.00 0.00 0.00 79 1013.4
20260903064530 82 125 5.0 12.0 0.00 0.00 0.00 79 1015.1
20260903063054 82 175 4.0 14.0 0.00 0.00 0.00 78 1013.3
20260903063028 82 179 5.0 14.0 0.00 0.00 0.00 78 1015.1
20260903061559 83 142 3.0 10.0 0.00 0.00 0.00 78 1013.4
20260903061536 83 146 3.0 10.0 0.00 0.00 0.00 78 1015.0
20260903060051 83 166 4.0 12.0 0.00 0.00 0.00 77 1013.2
20260903060024 83 141 4.0 11.0 0.00 0.00 0.00 78 1015.0
20260903054557 84 153 5.0 16.0 0.00 0.00 0.00 77 1013.0
20260903054540 84 189 4.0 16.0 0.00 0.00 0.00 77 1014.7
20260903053108 84 136 7.0 15.0 0.00 0.00 0.00 76 1013.2
20260903053019 84 107 6.0 15.0 0.00 0.00 0.00 76 1014.9
20260903051603 85 169 4.0 11.0 0.00 0.00 0.00 74 1013.1
20260903051517 85 170 4.0 9.0 0.00 0.00 0.00 74 1014.8
20260903050107 85 136 3.0 13.0 0.00 0.00 0.00 73 1013.0
20260903050014 85 136 3.0 11.0 0.00 0.00 0.00 73 1014.6
20260903044558 86 144 6.0 14.0 0.00 0.00 0.00 70 1013.0
20260903044513 86 144 6.0 14.0 0.00 0.00 0.00 70 1014.5
20260903043051 87 127 5.0 13.0 0.00 0.00 0.00 66 1012.9
20260903043011 87 154 6.0 12.0 0.00 0.00 0.00 67 1014.3
20260903041604 88 171 8.0 21.0 0.00 0.00 0.00 64 1013.0
20260903041514 88 148 8.0 19.0 0.00 0.00 0.00 64 1014.3
20260903040059 88 118 5.0 19.0 0.00 0.00 0.00 60 1012.8
20260903040011 88 186 6.0 19.0 0.00 0.00 0.00 60 1014.2
20260903034554 89 109 9.0 19.0 0.00 0.00 0.00 64 1012.6
20260903034510 89 172 9.0 19.0 0.00 0.00 0.00 65 1014.0
20260903033107 89 186 6.0 13.0 0.00 0.00 0.00 63 1012.1
20260903033009 89 123 6.0 13.0 0.00 0.00 0.00 63 1013.6
20260903031555 90 143 6.0 15.0 0.00 0.00 0.00 62 1011.8
20260903031508 90 157 6.0 15.0 0.00 0.00 0.00 62 1013.5
20260903030057 89 165 6.0 11.0 0.00 0.00 0.00 57 1011.7
20260903030018 89 134 7.0 11.0 0.00 0.00 0.00 57 1013.2
20260903024552 89 123 2.0 4.0 0.00 0.00 0.00 55 1011.3
20260903024508 89 123 2.0 4.0 0.00 0.00 0.00 56 1013.0
20260903023057 89 126 2.0 5.0 0.00 0.00 0.00 56 1011.0
20260903023010 89 141 3.0 5.0 0.00 0.00 0.00 56 1012.8
20260903021608 89 128 1.0 3.0 0.00 0.00 0.00 54 1011.0
20260903021509 89 129 1.0 3.0 0.00 0.00 0.00 55 1012.7
20260903020056 90 130 1.0 3.0 0.00 0.00 0.00 54 1010.9
20260903020007 90 130 1.0 3.0 0.00 0.00 0.00 54 1012.5
20260903014554 90 130 1.0 3.0 0.00 0.00 0.00 52 1010.6
20260903014507 90 130 1.0 3.0 0.00 0.00 0.00 53 1012.3
20260903013104 91 109 1.0 3.0 0.00 0.00 0.00 52 1010.5
20260903013005 91 109 1.0 3.0 0.00 0.00 0.00 52 1012.3
20260903011559 92 144 1.0 2.0 0.00 0.00 0.00 49 1010.5
20260903011507 92 144 1.0 2.0 0.00 0.00 0.00 49 1012.2
20260903010111 94 144 0.0 3.0 0.00 0.00 0.00 48 1010.4
20260903010004 94 144 1.0 3.0 0.00 0.00 0.00 48 1012.1
20260903004558 95 147 2.0 4.0 0.00 0.00 0.00 46 1010.3
20260903004504 95 147 1.0 4.0 0.00 0.00 0.00 47 1012.1
20260903003050 96 0 0.0 0.0 0.00 0.00 0.00 45 1010.4
20260903003002 96 190 0.0 0.0 0.00 0.00 0.00 45 1012.2
20260903001603 97 0 0.0 5.0 0.00 0.00 0.00 44 1010.4
20260903001501 97 145 0.0 3.0 0.00 0.00 0.00 44 1012.2
20260903000107 97 138 4.0 8.0 0.00 0.00 0.00 42 1012.3
20260903000104 97 152 3.0 8.0 0.00 0.00 0.00 42 1010.5
20260902234601 98 190 2.0 11.0 0.00 0.00 0.00 42 1012.4
20260902234552 98 267 2.0 11.0 0.00 0.00 0.00 42 1010.6
20260902233059 98 123 2.0 7.0 0.00 0.00 0.00 42 1012.4
20260902233057 98 131 3.0 7.0 0.00 0.00 0.00 41 1010.8
20260902231559 98 115 0.0 0.0 0.00 0.00 0.00 43 1012.4
20260902231555 98 0 0.0 0.0 0.00 0.00 0.00 43 1010.8
20260902230058 99 122 2.0 5.0 0.00 0.00 0.00 41 1012.4
20260902230053 99 150 0.0 6.0 0.00 0.00 0.00 41 1010.8
20260902224557 99 167 3.0 8.0 0.00 0.00 0.00 39 1012.5
20260902224552 99 192 1.0 8.0 0.00 0.00 0.00 39 1010.9
20260902223116 100 106 0.0 6.0 0.00 0.00 0.00 38 1010.9
20260902223103 100 177 2.0 6.0 0.00 0.00 0.00 38 1012.5
20260902221616 101 183 1.0 9.0 0.00 0.00 0.00 39 1011.0
20260902220059 101 0 0.0 8.0 0.00 0.00 0.00 38 1011.2
20260902220056 101 206 0.0 4.0 0.00 0.00 0.00 38 1012.8
20260902214556 100 123 2.0 9.0 0.00 0.00 0.00 39 1011.2
20260902214551 100 58 1.0 9.0 0.00 0.00 0.00 39 1012.9
20260902213101 100 103 2.0 9.0 0.00 0.00 0.00 39 1011.4
20260902213053 100 104 4.0 9.0 0.00 0.00 0.00 40 1012.9
20260902211611 100 246 1.0 8.0 0.00 0.00 0.00 38 1011.4
20260902211605 100 246 2.0 8.0 0.00 0.00 0.00 39 1013.1
20260902210053 100 120 4.0 9.0 0.00 0.00 0.00 41 1013.2
20260902204554 100 129 1.0 9.0 0.00 0.00 0.00 42 1011.9
20260902204547 100 103 3.0 8.0 0.00 0.00 0.00 42 1013.5
20260902203053 99 0 3.0 7.0 0.00 0.00 0.00 41 1012.1
20260902203043 99 109 2.0 7.0 0.00 0.00 0.00 41 1013.7
20260902201629 98 96 0.0 6.0 0.00 0.00 0.00 42 1012.4
20260902201548 99 101 2.0 5.0 0.00 0.00 0.00 43 1013.9
20260902200105 98 175 4.0 12.0 0.00 0.00 0.00 44 1012.8
20260902200037 98 169 3.0 11.0 0.00 0.00 0.00 45 1014.3
20260902194556 98 100 3.0 10.0 0.00 0.00 0.00 45 1013.0
20260902194539 98 91 2.0 10.0 0.00 0.00 0.00 46 1014.5
20260902193050 98 250 2.0 10.0 0.00 0.00 0.00 47 1013.1
20260902193033 98 250 2.0 10.0 0.00 0.00 0.00 47 1014.7
20260902191556 97 0 2.0 10.0 0.00 0.00 0.00 50 1013.4
20260902191529 97 129 1.0 9.0 0.00 0.00 0.00 51 1014.9
20260902190056 97 234 3.0 7.0 0.00 0.00 0.00 52 1013.6
20260902190026 97 255 4.0 8.0 0.00 0.00 0.00 52 1015.2
20260902184554 97 188 5.0 9.0 0.00 0.00 0.00 51 1013.9
20260902184523 97 159 4.0 8.0 0.00 0.00 0.00 52 1015.5
20260902183055 96 130 5.0 10.0 0.00 0.00 0.00 53 1014.2
20260902183019 96 130 4.0 10.0 0.00 0.00 0.00 53 1015.8
20260902181613 96 0 1.0 7.0 0.00 0.00 0.00 56 1014.4
20260902181518 96 201 1.0 7.0 0.00 0.00 0.00 56 1016.0
20260902180059 95 197 2.0 8.0 0.00 0.00 0.00 54 1014.9
20260902180018 95 215 1.0 8.0 0.00 0.00 0.00 55 1016.4
20260902174552 95 144 1.0 7.0 0.00 0.00 0.00 56 1015.0
20260902174512 95 132 1.0 7.0 0.00 0.00 0.00 57 1016.6
20260902173056 94 104 2.0 10.0 0.00 0.00 0.00 57 1015.2
20260902173009 94 129 3.0 9.0 0.00 0.00 0.00 57 1016.9
20260902171609 93 0 2.0 8.0 0.00 0.00 0.00 61 1015.2
20260902171506 93 217 2.0 8.0 0.00 0.00 0.00 60 1016.9
20260902170057 93 158 2.0 8.0 0.00 0.00 0.00 60 1015.6
20260902170003 93 86 2.0 8.0 0.00 0.00 0.00 61 1017.1
20260902164610 92 190 3.0 8.0 0.00 0.00 0.00 64 1017.2
20260902164557 92 101 2.0 8.0 0.00 0.00 0.00 64 1015.8
20260902163055 91 277 0.0 6.0 0.00 0.00 0.00 67 1017.2
20260902161602 90 0 0.0 4.0 0.00 0.00 0.00 68 1015.7
20260902161600 90 51 0.0 4.0 0.00 0.00 0.00 68 1017.1
20260902160049 89 235 2.0 6.0 0.00 0.00 0.00 70 1017.2
20260902154604 88 203 3.0 7.0 0.00 0.00 0.00 72 1015.6
20260902153056 87 201 2.0 10.0 0.00 0.00 0.00 74 1015.7
20260902153046 87 201 2.0 9.0 0.00 0.00 0.00 75 1017.4
20260902151603 86 183 2.0 7.0 0.00 0.00 0.00 76 1015.7
20260902151541 86 211 2.0 6.0 0.00 0.00 0.00 76 1017.5
20260902150052 86 115 0.0 10.0 0.00 0.00 0.00 77 1015.7
20260902150039 86 115 1.0 8.0 0.00 0.00 0.00 77 1017.3